Location: Drignac
(45.1667°N, 2.0333°E)
Time: 03:08:17
(UTC+00:00)

NOSS 3-4 (A) - Pass Details

Date: 29 March 2020
Orbit: 895 x 1317 km, 63.4° (Epoch: 21 May)

Event Time Altitude Azimuth Distance (km) Brightness Sun altitude
Rises 22:05:04 0° 320° (NW) 3,837 7.6 -35.1°
Reaches altitude 10° 22:07:36 10° 320° (NW) 2,937 6.8 -35.3°
Enters shadow 22:13:24 63° 299° (WNW) 1,280 4.1 -35.9°
